Location: Dos Palmas
(32.4468°N, 116.8732°W)
Time: 00:46:27
(UTC+00:00)

Cosmos 1378 Rocket - Pass Details

Date: 20 June 2021
Orbit: 601 x 627 km, 82.5° (Epoch: 01 August)

Event Time Altitude Azimuth Distance (km) Brightness Sun altitude
Rises 03:45:09 0° 188° (S) 2,845 6.7 -9.3°
Reaches altitude 10° 03:47:21 10° 190° (S) 1,949 5.9 -9.7°
Maximum altitude 03:51:40 77° 277° (W) 631 3.7 -10.4°
Drops below altitude 10° 03:56:03 10° 3° (N) 1,978 6.6 -11.2°
Sets 03:58:17 0° 5° (N) 2,891 7.5 -11.6°
